DW7229 Weather Reports


Display with metric or nautical units.
time (UTC)temp
F
wind
direction
speed
MPH
gust
MPH
rain 1hr
in
rain 24hr
in
rain mn
in
humidity
%
barometer
mb
20260508231027 57 90 1.0 3.0 0.00 0.00 0.00 32 1008.9
20260508230111 58 203 1.0 6.0 0.00 0.00 0.00 30 1009.0
20260508225015 59 254 1.0 3.0 0.00 0.00 0.00 30 1008.8
20260508224018 59 202 1.0 6.0 0.00 0.00 0.00 29 1008.8
20260508223022 61 297 1.0 4.0 0.00 0.00 0.00 28 1008.8
20260508222019 60 254 3.0 6.0 0.00 0.00 0.00 28 1008.7
20260508221017 62 300 3.0 7.0 0.00 0.00 0.00 27 1008.6
20260508220052 62 318 2.0 4.0 0.00 0.00 0.00 27 1008.6
20260508215017 62 212 2.0 5.0 0.00 0.00 0.00 27 1008.5
20260508214020 62 4 3.0 7.0 0.00 0.00 0.00 26 1008.5
20260508213044 63 345 1.0 3.0 0.00 0.00 0.00 26 1008.4
20260508212027 60 290 1.0 6.0 0.00 0.00 0.00 28 1008.4
20260508210015 61 305 3.0 7.0 0.00 0.00 0.00 26 1008.3
20260508205019 60 239 1.0 4.0 0.00 0.00 0.00 27 1008.3
20260508204022 60 255 5.0 8.0 0.00 0.00 0.00 26 1008.1
20260508203025 64 285 4.0 9.0 0.00 0.00 0.00 25 1008.0
20260508202029 62 288 3.0 6.0 0.00 0.00 0.00 26 1008.1
20260508201032 0 225 4.0 4.0 0.00 0.00 0.00 1008.0
20260508200017 62 224 4.0 9.0 0.00 0.00 0.00 26 1008.0
20260508195021 62 203 5.0 10.0 0.00 0.00 0.00 26 1008.0
20260508194024 63 273 6.0 9.0 0.00 0.00 0.00 25 1008.0
20260508193028 61 193 4.0 11.0 0.00 0.00 0.00 26 1008.1
20260508192030 59 239 3.0 6.0 0.00 0.00 0.00 27 1008.1
20260508191016 60 238 3.0 8.0 0.00 0.00 0.00 26 1008.1
20260508190019 61 240 4.0 9.0 0.00 0.00 0.00 26 1008.1
20260508185022 60 278 2.0 5.0 0.00 0.00 0.00 26 1008.1
20260508184019 59 303 3.0 7.0 0.00 0.00 0.00 27 1008.0
20260508183016 59 274 4.0 7.0 0.00 0.00 0.00 27 1007.9
20260508182032 59 262 3.0 7.0 0.00 0.00 0.00 29 1008.0
20260508181017 59 289 4.0 8.0 0.00 0.00 0.00 29 1008.1
20260508180020 59 345 3.0 8.0 0.00 0.00 0.00 30 1007.9
20260508175024 59 264 3.0 6.0 0.00 0.00 0.00 29 1008.1
20260508174027 59 188 4.0 6.0 0.00 0.00 0.00 31 1008.1
20260508173030 60 222 3.0 8.0 0.00 0.00 0.00 30 1008.1
20260508172015 61 305 3.0 8.0 0.00 0.00 0.00 30 1008.1
20260508171019 58 212 5.0 9.0 0.00 0.00 0.00 31 1008.0
20260508170022 59 237 3.0 8.0 0.00 0.00 0.00 29 1008.0
20260508165045 59 192 3.0 8.0 0.00 0.00 0.00 31 1007.9
20260508164029 59 217 4.0 8.0 0.00 0.00 0.00 30 1007.9
20260508163053 59 202 3.0 6.0 0.00 0.00 0.00 30 1008.0
20260508162037 60 277 3.0 6.0 0.00 0.00 0.00 28 1008.2
20260508161021 60 261 7.0 10.0 0.00 0.00 0.00 29 1008.4
20260508160024 59 348 3.0 7.0 0.00 0.00 0.00 28 1008.5
20260508155107 59 227 3.0 10.0 0.00 0.00 0.00 28 1008.5
20260508154030 59 296 3.0 9.0 0.00 0.00 0.00 31 1008.5
20260508153036 58 238 3.0 7.0 0.00 0.00 0.00 31 1008.5
20260508152019 57 333 2.0 6.0 0.00 0.00 0.00 32 1008.7
20260508151022 57 335 2.0 5.0 0.00 0.00 0.00 32 1008.6
20260508150019 57 284 5.0 8.0 0.00 0.00 0.00 32 1008.6
20260508145016 58 225 2.0 4.0 0.00 0.00 0.00 32 1008.7
20260508144032 58 251 5.0 10.0 0.00 0.00 0.00 31 1008.7
20260508143037 57 215 6.0 9.0 0.00 0.00 0.00 32 1008.7
20260508142020 58 253 6.0 11.0 0.00 0.00 0.00 32 1008.7
20260508141024 57 149 3.0 6.0 0.00 0.00 0.00 33 1008.9
20260508140027 56 141 4.0 13.0 0.00 0.00 0.00 34 1009.1
20260508135030 55 294 2.0 7.0 0.00 0.00 0.00 36 1009.1
20260508134015 54 274 4.0 7.0 0.00 0.00 0.00 37 1009.2
20260508133019 53 200 3.0 8.0 0.00 0.00 0.00 38 1009.1
20260508132022 53 275 3.0 7.0 0.00 0.00 0.00 40 1009.1
20260508131025 52 301 2.0 7.0 0.00 0.00 0.00 42 1009.2
20260508130029 51 342 2.0 5.0 0.00 0.00 0.00 42 1009.3
20260508125032 50 276 2.0 5.0 0.00 0.00 0.00 43 1009.3
20260508124017 50 170 2.0 10.0 0.00 0.00 0.00 44 1009.3
20260508123020 49 238 2.0 6.0 0.00 0.00 0.00 45 1009.4
20260508122023 49 338 1.0 5.0 0.00 0.00 0.00 47 1009.5
20260508121027 48 318 2.0 5.0 0.00 0.00 0.00 48 1009.4
20260508120030 47 238 2.0 4.0 0.00 0.00 0.00 49 1009.3
20260508115015 45 332 1.0 3.0 0.00 0.00 0.00 53 1009.4
20260508114018 44 0.0 0.0 0.00 0.00 0.00 57 1009.4
20260508113021 43 0.0 1.0 0.00 0.00 0.00 59 1009.5
20260508112039 41 248 0.0 2.0 0.00 0.00 0.00 64 1009.4
20260508111036 40 0.0 0.0 0.00 0.00 0.00 67 1009.3
20260508110031 38 0.0 0.0 0.00 0.00 0.00 71 1009.3
20260508105017 38 0.0 0.0 0.00 0.00 0.00 71 1009.0
20260508104020 37 0.0 0.0 0.00 0.00 0.00 74 1008.9
20260508103023 37 0.0 0.0 0.00 0.00 0.00 74 1008.8
20260508102027 37 0.0 0.0 0.00 0.00 0.00 74 1008.7
20260508101030 36 0.0 0.0 0.00 0.00 0.00 74 1008.6
20260508100015 36 0.0 0.0 0.00 0.00 0.00 74 1008.5
20260508095018 36 0.0 0.0 0.00 0.00 0.00 74 1008.4
20260508094022 36 0.0 0.0 0.00 0.00 0.00 74 1008.4
20260508093025 36 0.0 0.0 0.00 0.00 0.00 74 1008.4
20260508092028 36 0.0 0.0 0.00 0.00 0.00 73 1008.4
20260508091031 36 0.0 0.0 0.00 0.00 0.00 73 1008.3
20260508090017 36 0.0 0.0 0.00 0.00 0.00 73 1008.3
20260508085020 36 0.0 0.0 0.00 0.00 0.00 73 1008.2
20260508084023 36 0.0 0.0 0.00 0.00 0.00 73 1008.1
20260508083027 36 0.0 0.0 0.00 0.00 0.00 72 1008.0
20260508082030 36 0.0 0.0 0.00 0.00 0.00 72 1007.8
20260508081015 37 0.0 0.0 0.00 0.00 0.00 72 1007.6
20260508080018 37 0.0 0.0 0.00 0.00 0.00 72 1007.2
20260508075041 37 0.0 0.0 0.00 0.00 0.00 72 1007.1
20260508074019 37 0.0 0.0 0.00 0.00 0.00 72 1007.0
20260508073016 37 0.0 0.0 0.00 0.00 0.00 72 1006.9
20260508072032 38 0.0 0.0 0.00 0.00 0.00 71 1007.2
20260508071017 38 0.0 0.0 0.00 0.00 0.00 71 1007.2
20260508070020 38 0.0 0.0 0.00 0.00 0.00 71 1007.2
20260508065023 38 0.0 0.0 0.00 0.00 0.00 71 1007.1
20260508064027 38 0.0 0.0 0.00 0.00 0.00 70 1007.1
20260508063030 38 0.0 0.0 0.00 0.00 0.00 70 1007.1
20260508062015 38 0.0 0.0 0.00 0.00 0.00 69 1007.2
20260508061039 39 0.0 0.0 0.00 0.00 0.00 68 1007.4
20260508060021 39 0.0 0.0 0.00 0.00 0.00 68 1007.5
20260508055025 40 0.0 0.0 0.00 0.00 0.00 67 1007.5
20260508054028 40 0.0 0.0 0.00 0.00 0.00 66 1007.5
20260508053031 41 0.0 0.0 0.00 0.00 0.00 66 1007.5
20260508052017 41 0.0 0.0 0.00 0.00 0.00 66 1007.7
20260508051020 41 0.0 0.0 0.00 0.00 0.00 65 1007.8
20260508050023 42 0.0 0.0 0.00 0.00 0.00 65 1007.8
20260508045027 42 0.0 0.0 0.00 0.00 0.00 64 1008.0
20260508044030 42 0.0 0.0 0.00 0.00 0.00 65 1008.0
20260508043015 43 0.0 0.0 0.00 0.00 0.00 62 1008.0
20260508042019 42 0.0 0.0 0.00 0.00 0.00 64 1008.2
20260508041022 43 0.0 0.0 0.00 0.00 0.00 64 1007.9
20260508040019 44 0.0 0.0 0.00 0.00 0.00 64 1007.9
20260508035016 44 0.0 0.0 0.00 0.00 0.00 62 1007.8
20260508034032 44 0.0 0.0 0.00 0.00 0.00 64 1007.8
20260508033017 45 0.0 0.0 0.00 0.00 0.00 61 1007.9
20260508032020 45 0.0 0.0 0.00 0.00 0.00 61 1007.8
20260508031023 45 0.0 0.0 0.00 0.00 0.00 59 1007.9
20260508030027 45 0.0 0.0 0.00 0.00 0.00 61 1007.7
20260508025030 46 0.0 0.0 0.00 0.00 0.00 60 1007.6
20260508024015 45 0.0 0.0 0.00 0.00 0.00 58 1007.6
20260508023019 45 0.0 0.0 0.00 0.00 0.00 57 1007.7
20260508022022 47 0.0 0.0 0.00 0.00 0.00 55 1007.5
20260508021045 47 0.0 0.0 0.00 0.00 0.00 53 1007.5
20260508020049 47 0.0 0.0 0.00 0.00 0.00 52 1007.4
20260508015032 48 0.0 0.0 0.00 0.00 0.00 51 1007.4
20260508014017 49 0.0 0.0 0.00 0.00 0.00 49 1007.2
20260508013020 50 0.0 0.0 0.00 0.00 0.00 50 1006.9
20260508012023 50 0.0 0.0 0.00 0.00 0.00 46 1006.8
20260508011026 51 0.0 0.0 0.00 0.00 0.00 44 1006.8
20260508010030 52 0.0 0.0 0.00 0.00 0.00 43 1006.5
20260508005015 53 0.0 0.0 0.00 0.00 0.00 41 1006.4
20260508004018 54 225 0.0 1.0 0.00 0.00 0.00 36 1006.3
20260508003022 54 283 1.0 3.0 0.00 0.00 0.00 36 1006.3
20260508002019 54 315 0.0 2.0 0.00 0.00 0.00 35 1006.3
20260508001017 55 0.0 0.0 0.00 0.00 0.00 34 1006.2
20260508000032 55 272 0.0 3.0 0.00 0.00 0.00 34 1005.9
20260507235017 56 0.0 1.0 0.00 0.00 0.00 32 1006.1
20260507234020 57 2 1.0 5.0 0.00 0.00 0.00 31 1006.0
20260507233023 58 0.0 0.0 0.00 0.00 0.00 32 1005.8
20260507232027 58 116 1.0 7.0 0.00 0.00 0.00 30 1005.6